User: anonymous   Login
Location: Unspecified
(0.0000°N, 0.0000°E)
Time: 02:58:06
(UTC+00:00)
Language:

Tiros 9 - Orbit

View from above orbital plane
View from above orbital plane
View from above satellite
View from above satellite

Ground track
Ground track

The orbit data is extracted from the following two-line orbital elements,

1   978U 65004A   18171.48895789 +.00000240 +00000-0 +32745-3 0  9995
2   978 096.4095 259.2569 1157883 223.9687 126.3410 12.10875892358340
Epoch (UTC): 20 June 2018 11:44:05
Eccentricity: 0.1157883
inclination: 96.4095°
perigee height: 705 km
apogee height: 2560 km
right ascension of ascending node: 259.2569°
argument of perigee: 223.9687°
revolutions per day: 12.10875892
mean anomaly at epoch: 126.3410°
orbit number at epoch: 35834

The dashed part of the orbit path shows where the satellite is in the earth's shadow,  

DLR